Regional Weather Roundup
Issued by NWS Wakefield, VA

Current Version | Previous Version | Text Only | Print | Product List | Glossary Off
Versions: 1 2 3 4 5 6 7 8 9 10 11 12 13 14 15 16 17 18 19 20 21 22 23 24 25 26 27 28 29 30 31 32 33 34 35 36 37 38 39 40 41 42 43 44 45 46 47 48 49 50

000
ASUS41 KAKQ 291015
RWRAKQ

REGIONAL WEATHER ROUNDUP
NATIONAL WEATHER SERVICE WAKEFIELD VA
600 AM EDT FRI MAY 29 2015

Note: "fair" indicates few or no clouds below 12,000 feet with no
significant weather and/or obstructions to visibility. * = Denotes
station may not report precipitation (e.g., rain,snow,etc.),
thunder or fog.

VAZ042-051-052>054-056-291100-
NORTHERN VIRGINIA

CITY           SKY/WX    TMP DP  RH WIND       PRES   REMARKS
WASH NATIONAL  PTCLDY    75  68  78 NE10      30.22R
DULLES         PTCLDY    70  67  90 NE3       30.22R
FORT BELVOIR   MOCLDY    71  69  93 VRB2      30.21R
QUANTICO       MOCLDY    72  68  87 E8        30.21R
FREDERICKSBRG* FOG       69  69 100 CALM      30.19S VSB 3/4
STAFFORD*      FOG       66  65  97 CALM      30.25R VSB<1/4
WARRENTON      MOCLDY    67  67 100 NE5       30.21R
CULPEPER*      PTCLDY    64  64  99 CALM      30.22R FOG
MANASSAS*      CLEAR     66  66 100 N3        30.21S
LEESBURG*      MOCLDY    68  63  83 N6        30.25R
WINCHESTER     CLEAR     66  54  63 CALM      30.25R
FRONT ROYAL*   FAIR      63  61  94 CALM      30.24R
LURAY*         FOG       63  63 100 CALM      30.24R VSB<1/4
$$

VAZ048-049-060>072-079>083-291100-
CENTRAL AND SOUTH CENTRAL VIRGINIA

CITY           SKY/WX    TMP DP  RH WIND       PRES   REMARKS
RICHMOND       PTCLDY    68  65  90 SE3       30.20R
CHESTERFIELD*  NOT AVBL
PETERSBURG*    CLEAR     66  66 100 CALM      30.21R FOG
HANOVER        CLEAR     67  66  97 CALM      30.22R FOG
TAPPAHANNOCK*  CLEAR     67  63  86 CALM      30.21R
QUINTON*       FAIR      65  64  96 SE3       30.20R
CHARLOTTSVILLE CLEAR     63  62  97 CALM      30.22R
GORDONSVILLE*    N/A     62  62  99 CALM      30.21R FOG
ORANGE*        FOG       64  63  94 CALM      30.23R VSB 1/4
LOUISA*        FOG       64  63  94 CALM      30.20R VSB 1/4
BUMPASS*       FAIR      64  64  98 CALM      30.20R
FARMVILLE*     FOG       64  64 100 CALM      30.19R VSB 1/2
CREWE*         FAIR      65  63  95 CALM      30.20R
FORT PICKETT*  FAIR      65  64  97 CALM      30.20R
CHASE CITY*    PTSUNNY   65  65 100 CALM      30.21R
CLARKSVILLE*   FAIR      64  64 100 CALM      30.20R
SOUTH HILL*    CLEAR     65  64  96 CALM      30.26R
LAWRENCEVILLE* FAIR      64  64 100 CALM      30.21R
EMPORIA*       CLEAR     63  63 100 CALM      30.23R
$$

VAZ088>098-291100-
SOUTHEAST VIRGINIA

CITY           SKY/WX    TMP DP  RH WIND       PRES   REMARKS
NORFOLK        CLOUDY    70  63  78 S5        30.22R
VIRGINIA BEACH MOCLDY    70  63  78 CALM      30.22R
NORFOLK NAVAL  MOCLDY    75  64  68 CALM      30.23S
WEST POINT*    PTCLDY    72  64  75 S6        30.23R
SALUDA*        FAIR      69  64  86 CALM      30.21R
NEWPORT NEWS   PTCLDY    74  64  71 S6        30.22R
LANGLEY AFB    MOCLDY    68  65  91 SW9       30.21R
FORT EUSTIS    PTCLDY    71  65  81 S6        30.20R
WILLIAMSBURG*  PTCLDY    72  66  83 S6        30.23R
HR EXEC AP*    PTSUNNY   68  63  83 CALM      30.24S
FRANKLIN*      CLEAR     66  62  87 S6        30.22R
WAKEFIELD      CLEAR     68  63  84 CALM      30.21R
$$

VAZ020-022-025-037-045-291100-
WEST CENTRAL AND SOUTHWEST VIRGINIA

CITY           SKY/WX    TMP DP  RH WIND       PRES   REMARKS
STAUNTON*      FOG       63  61  95 CALM      30.26R VSB 1/4
WAYNESBORO*    FAIR      60  60  99 CALM      30.25R
HOT SPRINGS VA CLEAR     62  62 100 E6        30.33R
LYNCHBURG      CLEAR     61  60  97 CALM      30.24R FOG
DANVILLE       CLEAR     63  61  93 CALM      30.21R
SOUTH BOSTON*  CLOUDY    61  59  95 MISG      30.21R VSB 1/4
MARTINSVILLE   FOG       61  61 100 CALM      30.24R VSB 1
ROANOKE        MOCLDY    65  63  93 CALM      30.25R
BLACKSBURG     PTCLDY    61  61  98 CALM      30.28S FOG
DUBLIN*        MOCLDY    60  60 100 W3        30.28R FOG
MARION*        FOG       62  60  96 E6        30.30R VSB 1/4
HILLSVILLE*    NOT AVBL
RICHLANDS*     CLOUDY    64  60  87 CALM      30.26R
WISE*          CLEAR     61  61 100 S3        30.27R
ABINGDON*      CLEAR     64  63  94 E6        30.24R
$$

MDZ021>025-VAZ099-100-291100-
SOUTHERN MARYLAND AND THE DELMARVA PENINSULA

CITY           SKY/WX    TMP DP  RH WIND       PRES   REMARKS
PATUXENT RIVER PTCLDY    68  67  96 E3        30.21R FOG
BAY BRIDGE APT NOT AVBL
LEONARDTOWN    MOCLDY    66  64  94 N3        30.23R
DOVER          MOCLDY    69  66  93 NE13      30.23R
GEORGETOWN     CLOUDY    67  63  87 CALM      30.24R
EASTON         MOCLDY    72  72 100 CALM      30.26R
CAMBRIDGE      MOCLDY    72  68  88 NE5       30.22R
SALISBURY      PTCLDY    63  61  93 CALM      30.22R
OCEAN CITY     MOCLDY    64  62  93 S5        30.23R
WALLOPS ISLAND CLEAR     64  63  96 S7        30.23S
ACCOMACK*      MOCLDY    66  64  94 S6        30.22S
$$

NCZ012>017-030>032-291100-
NORTH CENTRAL AND EASTERN NORTH CAROLINA

CITY           SKY/WX    TMP DP  RH WIND       PRES   REMARKS
ROANOKE RAPIDS FAIR      64  63  94 CALM      30.21R
RALEIGH        PTCLDY    68  64  87 CALM      30.21R
ELIZABETH CITY PTCLDY    65  63  93 CALM      30.23R
AHOSKIE*       PTCLDY    64  62  91 CALM      30.22S
EDENTON*       CLEAR     64  62  93 CALM      30.22S
CURRITUCK*     CLEAR     66  63  90 CALM      30.24R
KILL DEVIL HLS   N/A     65  63  93 CALM      30.22R
MANTEO         CLEAR     62  61  96 CALM      30.24R
CAPE HATTERAS  MOCLDY    69  64  84 N3        30.22R
TARBORO*       FAIR      66  64  94 CALM      30.23R
GOLDSBORO      PTCLDY    65  63  93 CALM      30.19S
WASHINGTON     CLEAR     62  61  94 CALM      30.23R
GREENVILLE     PTCLDY    66  63  88 CALM      30.22S
NEW BERN       CLEAR     60  57  89 CALM      30.23R
WILMINGTON     CLEAR     61  59  93 CALM      30.19S
$$

VAZ048-291100-
ELSEWHERE

CITY           SKY/WX    TMP DP  RH WIND       PRES   REMARKS
HARRISBURG PA  PTCLDY    62  54  74 N3        30.27R
BALTIMORE      PTCLDY    70  59  68 NE8       30.23R
ANNAPOLIS      CLOUDY    71  61  70 NE7       30.22R
ANDREWS AFB    PTCLDY    69  69  99 NE7       30.22R
PHILADELPHIA   PTCLDY    66  55  67 E7        30.27R
HENDERSON NC   CLEAR     65  63  91 S3        30.21R
GREENSBORO     MOCLDY    67  66  97 S5        30.20R
ROCKY MOUNT    PTCLDY    66  64  93 CALM      30.22R
$$

VAZ100-291100-
MARINE

STATION/POSITION TIME  TEMP    WIND        PRES    WAVE   SWELL
                       AIR SEA DIR/SP/G            HT/PER HT/PER
                 (UTC) (F)     (DEG/KT/KT) (MB)    (FT/S) (FT/S)
BRANDYWINE LGT   0900   70 66  200/  5/  5 1023.6R
CAPE MAY NJ      0900   67 70   60/  2/  4 1023.4R
LEWES DE         0900   67 61  170/  1/  2 1023.4R
15NM E FENWICK I 0950   65 63              1023.4R   3/ 9
OCEAN-CITY-INLET 0900   62 58  180/  6/  7 1023.1R
WACHAPREAGUE VA  0900   69 73  220/  4/  8 1023.2R
THOMAS POINT MD  1000   71 71   40/ 10/ 11 1024.0R
GOOSES REEF MD   1000   71 71  100/  4/  6 1024.1R   1/ 3
COVE POINT MD    0900   71     160/  5/  6 1023.3R
SOLOMONS ISLAND  0900      70                N/A
BISHOPS HEAD MD  0900   73 75  170/  9/ 10 1022.5R
PINEY POINT MD   0900          190/  6/  7   N/A
CAMBRIDGE MD     0900   71 75   40/  5/  7 1022.8R
LEWISETTA VA     0900   71 75              1022.2R
RAPPAHANNOCK LGT 0900          170/  9/ 10 1023.4S
STINGRAY PT      1000   72 73  200/ 10/ 12 1022.7R   1/ 2
YORK RVR RNG VA  0900   72     190/ 12/ 13 1022.4R
YORKTOWN VA      0900   71 72  150/  4/  5 1022.6R
JAMESTOWN VA     1000   70 77  130/ 10/ 12 1022.3R
DOMINION TERM VA 0900   71     210/ 12/ 15 1023.0S
KIPTOPEKE VA     0900      76  200/  9/ 12   N/A
CHES BAY BRIDGE  0900   70 71  170/  7/  8 1022.9R
CAPE HENRY VA    0900   70     180/  3/  4 1022.0R
CHESAPEAKE LGHT  0900   69     200/ 10/ 10 1024.0R
WILLOUBY STN VA  0900   71     200/  8/  9 1023.9R
CAPE HENRY BUOY  0928      61                N/A     3/ 9
1ST LANDING BUOY 1000      71              1023.0S
CAPE CHARLES BUO 0926      68                N/A     3/ 8   3/ 8
OFFSHORE WE BUOY 0911      65                N/A     3/ 8   3/ 8
64NM E OF VA BCH 0950   66 65  100/  4/  6 1023.5R   3/ 9   3/ 9
DUCK PIER NC     0900   65 56  160/  2/  2 1022.4S
44100 DUCK FRF   0924      68                N/A     3/ 9
44056 DUCK FRF   0911      60                N/A     3/ 9
OREGON INLET NC  0900   70 77  360/  3/  4 1023.3R
HATTERAS NC      0900   72 76   30/  2/  2 1022.5F
DIAMOND SHLS NC  0950   76 76  120/  4/  8 1023.1    4/ 9   3/ 9
CAPE LOOKOUT NC  1000   72      50/  5/  5 1022.8R
$$



USA.gov is the U.S. government's official web portal to all federal, state and local government web resources and services.